Hourly Weather Roundup
Issued by NWS Central Illinois

Home | Current Version | Previous Version | Text Only | Print | Product List | Glossary On
Versions: 1 2 3 4 5 6 7 8 9 10 11 12 13 14 15 16 17 18 19 20 21 22 23 24 25 26 27 28 29 30 31 32 33 34 35 36 37 38 39 40 41 42 43 44 45 46 47 48 49 50
000
NZUS43 KILX 182110
HWRILX

AREA WEATHER ROUNDUP
NATIONAL WEATHER SERVICE, LINCOLN IL
400 PM CDT FRI APR 18 2014


CITY           SKY/WX    TMP DP  RH WIND       PRES   REMARKS
BLOOMINGTON    SUNNY     64  27  25 VRB5      30.28F
CHAMPAIGN      SUNNY     67  32  27 CALM      30.26F
DANVILLE       SUNNY     67  36  32 NW6       30.23F
DECATUR        SUNNY     69  34  27 MISG      30.26F
FLORA          NOT AVBL
GALESBURG      SUNNY     64  35  34 N3        30.27F
JACKSONVILLE   SUNNY     67  34  29 CALM      30.26F
LACON          SUNNY     62  31  31 CALM      30.27F
LAWRENCEVILLE  CLOUDY    70  40  33 E7        30.23F
LITCHFIELD     SUNNY     65  41  41 CALM      30.26F
$$


CITY           SKY/WX    TMP DP  RH WIND       PRES   REMARKS
LINCOLN        SUNNY     68  28  22 CALM      30.25F
MACOMB         SUNNY     64  31  29 CALM      30.29F
MATTOON        SUNNY     68  42  38 N8        30.24F
MT CARMEL AP   MOSUNNY   72  41  33 N10       30.22F
OLNEY-NOBLE AP MOSUNNY   70  43  37 N9        30.24F
PARIS          SUNNY     69  40  35 NW5       30.25F
PEORIA         SUNNY     65  33  30 E8        30.28F
PONTIAC        SUNNY     64  30  27 NW3       30.27F
RANTOUL        SUNNY     68  26  21 CALM      30.27F
ROBINSON       SUNNY     72  41  33 N7        30.24F
SPRINGFIELD    SUNNY     69  32  25 VRB5      30.26F
TAYLORVILLE    SUNNY     64  37  36 CALM      30.26F
$$

...REGIONAL REPORTS...


CITY           SKY/WX    TMP DP  RH WIND       PRES   REMARKS
CHICAGO O`HARE MOSUNNY   48  31  51 NE13      30.33F
KANKAKEE       SUNNY     61  42  48 NE10      30.29S
MOLINE         SUNNY     64  30  27 VRB6      30.28F
MOUNT VERNON   SUNNY     70  39  32 N6        30.24F
PITTSFIELD     SUNNY     67  34  29 E5        30.27F
QUINCY         SUNNY     65  34  31 CALM      30.25F
ROCKFORD       MOSUNNY   59  29  31 VRB5      30.31F
$$


CITY           SKY/WX    TMP DP  RH WIND       PRES   REMARKS
BURLINGTON     SUNNY     62  28  27 CALM      30.27F
CEDAR RAPIDS   SUNNY     61  29  29 NE7       30.27F
DES MOINES     MOSUNNY   65  32  29 SE10G20   30.23F
KIRKSVILLE     SUNNY     65  34  31 VRB3      30.26F
OTTUMWA        SUNNY     63  30  28 SE9       30.25F
ST LOUIS       MOSUNNY   70  40  33 CALM      30.25F
$$


CITY           SKY/WX    TMP DP  RH WIND       PRES   REMARKS
TERRE HAUTE    SUNNY     70  41  34 MISG      30.23F
EVANSVILLE     SUNNY     73  37  27 MISG      30.22F
INDIANAPOLIS   MOSUNNY   68  38  33 VRB5      30.23F
LAFAYETTE      MOSUNNY   66  38  35 N5        30.25F
MADISON        MOSUNNY   54  25  32 W5        30.33F
MILWAUKEE      MOSUNNY   42  31  64 NE12      30.37S
$$




USA.gov is the U.S. government's official web portal to all federal, state and local government web resources and services.